Location: Eppenbrunn
(49.1158°N, 7.5601°E)
Time: 19:09:45
(UTC+00:00)

IGS 5A - Pass Details

Date: 14 August 2020
Orbit: 583 x 588 km, 97.6° (Epoch: 27 September)

Event Time Altitude Azimuth Distance (km) Brightness Sun altitude
Exits shadow 21:59:17 - 241° (WSW) 2,082 6.2 -23.5°
Reaches altitude 10° 22:00:14 10° 252° (WSW) 1,917 6.1 -23.6°
Maximum altitude 22:01:42 12° 273° (W) 1,816 6.3 -23.7°
Drops below altitude 10° 22:03:09 10° 294° (WNW) 1,923 6.7 -23.8°
Sets 22:06:49 0° 328° (NNW) 2,831 8.3 -24.0°
